RH
13 13 13 14 14 13 13 13 13 13 13 13 12 11 10 10 10 9 9 8 9 9 9 9 9 9 8 8 8 9 9 9 9 9 11 10 8 7 7 8 7 7 7 7 7 7 7 7 7 7 8 8 9 10 9 9 9 9 9 10 10 10 11 11 10 10 10 11 10 10 10 8 8 9 10 10 11 11 11 12 13 14 13 15 15 15 15 15
13 13 13 14 14 14 13 13 14 14 14 14 13 12 11 10 10 10 9 8 9 9 9 9 9 9 8 8 8 8 9 9 10 10 10 9 8 8 7 8 8 7 7 7 7 8 7 7 7 7 7 8 9 10 10 9 9 10 11 11 10 11 11 10 9 9 9 10 9 10 10 9 8 9 10 10 10 11 11 12 13 13 14 14 14 14 14 15
13 13 13 14 14 15 16 16 17 16 15 14 13 12 11 10 10 10 9 9 9 9 9 9 9 9 8 8 8 8 8 9 9 10 9 8 8 8 8 8 8 7 7 7 7 8 7 7 7 7 7 7 8 9 9 9 9 9 10 11 10 10 10 8 8 8 9 9 9 10 10 9 9 9 10 11 10 11 10 11 12 12 13 14 14 14 14 14
13 13 13 14 14 15 19 20 18 17 15 14 13 12 12 11 10 10 9 8 9 9 9 9 9 9 9 9 8 8 9 9 9 9 8 8 8 8 8 8 8 8 8 7 7 7 7 8 7 7 7 7 8 8 8 8 9 9 8 10 10 10 9 8 8 8 9 9 9 10 10 10 9 10 11 11 11 11 10 10 11 12 12 13 13 13 14 14
12 13 13 14 14 16 19 19 16 15 14 13 13 12 11 10 10 9 9 9 8 9 9 9 10 10 9 9 9 10 10 9 10 9 8 8 8 8 9 8 8 8 8 8 8 8 8 8 7 7 7 7 7 7 7 8 8 8 7 8 9 9 8 8 9 9 9 9 9 10 10 10 10 10 10 10 11 12 13 12 11 11 12 12 12 12 13 13
13 13 13 14 14 16 17 15 14 14 13 12 12 11 11 10 10 9 9 8 8 8 9 9 10 10 9 9 9 10 11 11 11 10 9 9 9 9 9 8 8 8 9 8 8 9 8 8 8 7 7 6 7 6 7 8 7 8 8 8 8 8 8 9 9 9 9 9 9 10 10 11 11 10 10 10 10 12 13 12 11 11 12 12 12 12 13 13
13 13 13 14 14 15 15 14 13 13 12 12 12 11 10 10 10 9 9 8 8 8 8 9 10 10 10 9 9 10 11 12 11 11 10 10 10 9 9 9 9 9 9 9 9 9 8 8 8 7 7 6 7 7 8 8 7 7 8 8 8 9 8 9 9 9 9 10 9 10 11 11 10 10 10 10 10 11 12 12 12 11 12 12 13 13 13 13
13 13 13 13 14 14 14 13 12 12 12 12 11 11 10 10 9 9 9 9 9 8 8 9 10 9 9 9 10 10 11 12 11 11 11 10 10 10 10 10 10 10 10 9 9 9 8 8 7 7 7 7 7 7 8 7 6 7 7 8 8 9 9 9 10 9 10 10 10 10 11 11 10 11 10 10 10 11 11 12 13 12 13 13 13 14 14 14
13 13 13 13 13 14 13 13 12 12 12 12 11 11 10 10 9 9 9 8 8 8 8 9 9 9 9 9 10 11 10 11 11 11 11 10 10 10 11 11 11 11 11 10 9 9 8 8 8 8 7 8 7 8 8 8 8 7 7 8 8 9 9 9 9 9 10 10 10 11 10 10 11 11 10 10 10 10 10 11 12 12 13 13 14 14 14 15
13 13 13 13 13 13 13 13 12 12 12 11 11 10 9 9 8 9 9 8 8 8 8 9 9 9 9 9 10 10 12 11 11 12 12 11 11 11 11 11 11 11 11 10 9 9 9 8 8 8 8 8 8 8 8 8 9 9 8 8 9 9 9 10 9 9 10 10 11 11 10 10 11 11 9 10 10 10 11 11 11 12 12 13 13 14 14 15
13 13 13 13 13 13 13 13 13 12 12 11 10 9 9 8 8 9 8 8 8 7 8 9 9 9 9 9 10 10 12 11 10 12 13 12 11 10 11 11 12 12 11 11 9 9 9 9 8 8 8 8 8 9 9 9 9 9 8 8 9 9 10 10 9 10 10 10 11 11 10 10 11 11 9 10 10 10 11 11 12 11 12 12 13 13 14 14
14 13 13 13 13 13 13 13 13 12 11 10 9 9 8 8 8 8 8 8 7 7 9 9 9 9 9 9 11 11 11 11 10 11 12 12 12 11 10 10 12 12 11 11 9 9 9 9 9 9 9 9 9 9 10 10 10 9 9 9 9 9 9 10 9 10 10 10 11 11 11 10 10 10 10 11 11 11 12 12 12 12 12 13 13 13 13 14
16 15 13 13 13 13 13 13 12 11 10 10 9 9 9 8 8 8 8 7 8 8 9 9 9 9 9 9 10 11 12 12 11 11 11 11 11 12 11 10 12 12 12 11 10 9 9 9 10 10 10 10 10 10 10 10 10 10 9 10 10 10 10 10 10 10 10 11 11 12 12 11 11 10 10 12 12 12 12 12 12 12 12 13 13 13 13 14
19 17 15 13 13 13 12 12 12 11 10 10 10 9 9 9 8 8 8 8 9 9 9 9 9 9 9 10 11 10 12 12 11 11 12 11 11 12 12 12 12 13 12 11 11 10 10 10 10 10 11 11 11 11 11 11 10 10 10 10 12 13 13 12 11 11 11 11 12 12 13 12 12 12 11 11 12 12 12 12 12 12 12 12 13 13 13 13
24 19 17 16 14 13 12 12 12 11 11 11 10 10 10 9 9 9 9 9 9 10 10 10 10 9 9 11 11 10 11 12 11 11 12 11 11 13 14 13 14 13 13 12 12 11 11 11 11 11 11 11 12 12 12 12 11 10 11 12 13 13 15 15 14 12 12 12 12 13 14 12 12 13 12 11 12 12 12 11 11 11 11 12 12 13 13 13
31 24 20 18 16 14 14 13 12 12 12 12 11 11 10 10 10 10 10 10 10 10 11 11 10 10 10 10 11 11 10 11 12 11 11 12 11 13 15 15 16 14 13 13 12 12 12 12 12 12 12 12 12 13 14 15 14 12 12 15 17 14 14 16 15 13 13 13 13 14 13 13 13 12 11 11 11 12 11 11 11 11 11 11 12 12 12 12
37 31 25 22 20 17 16 15 14 14 13 12 12 11 11 11 11 10 10 10 11 11 12 12 11 11 11 11 11 11 11 10 12 12 11 12 12 12 15 16 16 16 15 14 13 13 13 13 13 13 13 12 13 15 16 16 16 15 13 14 18 16 14 15 15 15 14 13 14 14 13 13 12 10 10 11 11 11 11 11 11 11 11 11 11 11 11 12
39 37 31 26 24 21 19 17 16 16 15 13 13 13 12 12 11 11 12 12 12 13 13 13 12 11 11 11 11 11 11 10 12 13 12 12 12 13 15 15 16 16 16 15 14 14 15 14 14 15 15 13 13 15 17 16 15 16 16 15 16 16 14 14 15 15 14 14 14 14 13 12 11 10 10 10 11 11 11 10 11 10 10 10 10 11 11 11
42 40 38 31 27 25 23 20 18 17 16 15 14 13 13 13 13 13 13 14 14 14 14 13 12 11 12 12 11 11 11 11 12 13 12 12 12 14 16 16 16 16 15 15 15 15 16 15 16 18 17 14 13 14 16 15 14 15 16 16 15 15 14 13 14 14 13 13 13 13 12 11 10 10 9 10 10 10 10 10 10 10 10 10 10 10 11 11
49 43 41 38 31 27 26 24 21 19 17 16 15 15 15 15 15 16 16 16 16 16 14 13 12 12 14 13 12 12 12 12 13 14 13 12 13 15 17 17 17 16 15 16 16 15 15 17 17 17 16 16 15 14 14 14 13 13 14 15 14 14 14 14 14 14 14 13 12 12 11 11 10 10 9 9 9 9 9 10 10 11 11 11 11 11 11 11
58 50 44 42 37 31 28 27 24 22 19 18 16 16 16 16 15 16 17 17 16 16 15 14 13 13 14 13 13 13 13 14 15 15 13 13 14 15 17 17 17 16 16 17 17 15 15 17 18 17 16 17 16 14 13 13 12 12 13 15 15 15 15 14 14 14 14 14 12 12 11 11 10 10 9 9 9 9 9 10 10 10 10 10 11 11 11 11
63 57 49 45 43 36 30 28 26 25 23 20 18 17 17 16 15 16 16 16 15 15 14 14 13 13 13 13 14 14 15 15 16 16 14 14 15 14 16 15 15 17 17 16 15 16 16 16 16 16 15 16 16 14 13 14 14 13 15 16 16 17 15 14 14 15 15 14 13 13 12 11 10 10 9 9 9 9 9 9 10 10 10 10 10 10 11 12
66 61 52 46 46 43 35 29 26 25 25 23 21 19 17 16 16 16 15 15 15 14 14 13 14 15 14 14 15 15 15 15 15 16 15 15 16 15 15 14 14 17 17 15 15 17 18 16 15 14 13 14 15 15 14 14 15 15 15 17 17 17 15 14 16 17 16 15 14 14 14 12 10 9 9 9 9 9 9 10 10 10 10 10 10 11 11 12
69 64 56 48 45 46 43 34 27 25 24 24 23 21 19 18 18 17 17 17 16 15 14 13 14 15 15 15 15 15 16 15 15 17 16 15 16 16 15 14 14 16 15 15 15 17 19 18 16 14 14 14 14 15 15 15 16 16 16 16 16 18 17 15 16 17 16 16 16 16 15 12 9 9 9 9 10 10 10 10 10 11 10 10 10 11 11 12
74 69 63 56 48 44 44 40 33 28 25 25 24 23 22 21 20 19 18 18 17 17 16 14 13 14 15 14 14 16 16 15 16 17 17 16 16 16 15 15 15 16 15 15 15 16 19 19 16 15 15 15 15 15 15 15 16 17 17 15 14 16 17 15 16 17 16 18 20 19 16 12 9 9 9 8 9 10 9 10 10 10 9 10 11 11 11 11
77 75 69 63 56 49 45 44 41 35 30 28 26 25 25 24 23 21 20 21 21 19 18 16 15 15 14 14 15 16 15 15 15 17 17 17 17 16 16 15 15 17 17 16 16 17 19 19 17 15 16 17 17 15 14 15 16 17 20 19 15 15 17 17 18 18 18 20 22 20 18 15 11 8 8 8 8 9 9 9 9 9 9 10 11 11 12 12
77 81 77 70 63 56 51 49 47 41 37 34 30 29 29 27 27 25 22 26 26 21 19 18 17 16 15 15 15 15 14 16 16 17 18 18 18 17 16 17 16 17 18 16 17 18 18 19 18 17 17 18 17 16 16 15 15 20 24 21 16 15 18 18 19 19 20 21 20 18 19 21 17 10 8 9 9 9 8 8 8 9 9 9 11 12 12 12
80 80 81 79 74 65 58 54 50 47 43 39 33 32 33 31 31 28 26 31 31 24 21 20 18 18 19 18 16 15 16 16 16 18 19 18 19 18 17 18 16 16 17 16 18 20 20 20 20 18 17 17 18 19 19 15 16 23 26 21 18 18 18 19 20 19 21 22 21 21 21 23 21 12 8 9 9 9 8 8 8 7 9 10 10 12 12 11
85 80 79 84 83 76 68 60 56 53 48 41 36 35 35 36 34 32 34 37 33 26 22 22 20 20 21 20 18 17 16 17 19 20 20 19 19 19 18 18 17 17 18 16 18 23 24 23 21 19 19 18 20 22 22 18 19 23 23 20 20 20 19 20 20 19 22 26 25 24 23 21 18 13 9 9 9 9 8 7 7 7 8 10 11 11 11 11
86 87 85 85 86 84 79 71 64 59 53 46 40 37 38 39 36 38 45 40 30 27 25 24 23 22 21 20 19 19 17 19 22 22 22 20 20 19 18 18 18 18 20 19 20 23 24 24 22 21 21 20 21 23 24 23 22 23 22 21 22 21 20 20 19 20 23 25 25 25 22 20 19 15 9 9 9 9 8 7 7 8 9 11 11 10 11 12
84 90 91 89 87 86 86 84 77 68 64 56 46 43 43 43 40 43 46 34 25 29 28 25 25 24 22 20 20 21 19 21 22 21 22 21 20 19 18 19 19 21 22 21 21 22 23 23 22 22 23 22 22 22 24 25 25 24 23 23 23 22 22 21 23 26 24 22 24 26 23 23 24 17 10 9 9 8 8 8 7 8 9 11 10 10 11 13
78 86 90 91 92 90 87 89 85 79 76 69 58 53 49 49 48 45 37 28 27 32 29 26 27 25 24 23 22 23 21 23 23 21 21 21 21 19 18 18 18 22 23 20 22 24 23 22 21 22 24 22 22 23 24 25 25 24 24 25 23 22 23 23 25 28 24 22 26 26 24 24 20 13 11 10 9 8 8 8 8 8 9 10 10 10 11 13
68 75 83 89 94 95 91 88 87 87 86 80 70 62 58 59 54 41 32 29 33 36 32 29 28 27 27 27 26 25 24 25 25 24 22 21 22 21 19 18 16 19 20 20 24 26 25 24 23 23 22 22 21 22 24 24 23 22 23 25 23 20 22 23 23 23 21 22 26 25 25 23 16 11 11 10 9 9 8 8 9 10 10 10 11 11 12 12
63 65 72 79 85 90 91 91 90 90 91 89 82 73 70 68 55 40 38 38 40 41 36 33 33 32 31 32 31 28 28 29 28 27 27 24 25 23 21 20 18 18 20 23 26 25 25 25 23 22 20 20 20 19 19 21 22 21 20 23 23 19 19 21 21 22 21 22 26 27 25 20 14 12 12 10 10 10 10 10 10 11 11 11 12 12 12 12
61 61 63 68 72 77 82 88 92 94 93 91 90 85 78 70 55 47 48 48 45 44 41 38 39 39 38 37 35 32 33 34 32 32 32 29 26 25 22 22 21 20 20 22 23 23 24 23 22 22 20 18 19 18 17 19 23 23 21 25 26 21 18 20 22 23 22 22 25 27 23 15 11 12 10 10 11 10 11 11 10 11 10 11 12 12 11 11
58 61 61 62 66 68 73 78 84 93 95 92 95 93 81 70 63 59 59 56 50 48 48 48 47 46 45 43 40 38 38 38 37 37 36 33 30 27 24 22 21 21 21 21 21 23 24 24 25 25 22 20 21 21 19 20 24 24 24 26 24 21 21 22 24 24 24 23 20 20 19 13 10 10 9 8 9 9 10 10 10 10 9 10 11 10 10 11
48 54 57 59 61 63 68 71 74 83 89 92 98 96 84 76 73 71 68 64 59 55 55 55 54 53 52 49 47 45 43 43 43 42 40 38 35 30 27 25 23 23 22 21 23 24 23 26 29 28 25 25 25 25 23 23 25 26 27 25 21 22 23 22 24 25 25 25 20 16 16 14 13 12 9 8 9 9 9 9 10 11 10 10 9 9 10 11
33 41 48 53 57 60 63 66 69 76 83 90 94 93 87 81 78 77 74 70 69 67 64 64 63 61 58 54 52 51 50 50 49 47 45 43 38 30 29 29 27 26 26 25 28 29 27 29 33 32 30 30 29 28 27 26 26 27 28 27 25 27 26 24 25 25 25 27 24 19 17 16 14 11 9 10 10 9 9 9 9 10 10 11 10 10 10 11
24 27 33 38 47 55 61 64 65 71 79 85 86 83 80 78 78 81 80 76 77 77 74 73 71 67 63 60 58 58 58 57 54 53 51 49 43 34 31 33 32 30 30 31 31 32 30 31 36 37 35 34 33 31 29 28 29 29 29 30 29 29 27 25 26 24 22 25 25 22 19 17 13 9 8 9 9 8 9 8 9 9 10 11 12 12 12 12
24 25 25 26 34 43 54 62 65 68 72 71 70 70 71 73 76 81 83 82 83 84 84 82 78 72 68 67 65 63 62 63 62 60 58 55 48 40 37 38 39 36 35 36 37 36 35 34 36 41 41 38 36 32 28 28 31 32 32 32 32 30 29 30 29 25 22 23 24 23 21 16 11 10 10 10 9 9 9 10 10 11 11 13 13 13 13 13
26 27 25 22 26 33 43 55 62 66 67 63 60 62 65 68 70 73 79 84 87 89 89 88 85 82 78 74 71 69 68 67 66 65 63 57 51 48 47 45 45 44 42 43 42 40 40 37 38 44 44 38 34 31 30 31 31 31 31 30 29 28 31 35 34 29 28 27 25 25 25 17 10 11 11 10 10 10 10 12 12 12 13 14 13 13 14 14
25 23 23 23 26 31 39 47 52 56 61 60 56 55 60 63 62 63 68 74 78 80 82 85 87 89 88 83 80 80 79 77 73 69 66 59 54 56 56 53 52 52 50 50 49 45 45 44 43 44 42 38 36 35 36 36 34 33 33 29 27 28 31 35 36 33 34 33 29 29 31 21 9 9 11 10 11 11 12 13 13 13 14 13 13 13 14 15
23 19 22 25 26 31 39 43 44 48 49 47 48 50 55 57 55 56 60 63 66 67 68 72 76 82 84 84 85 87 87 87 84 77 70 65 60 60 59 57 59 60 58 60 59 55 56 56 50 47 43 42 43 40 39 39 38 38 35 31 32 34 35 37 37 36 37 38 34 35 37 26 11 10 13 11 12 13 12 13 13 13 13 12 12 13 14 16
22 20 22 26 27 34 41 38 34 38 38 38 43 46 47 50 51 53 54 54 55 60 63 63 64 69 72 74 80 82 83 87 86 81 77 73 67 63 62 62 64 65 64 67 67 65 66 66 60 56 53 51 50 48 45 44 42 40 36 35 35 35 39 43 41 40 41 38 35 37 38 26 12 11 14 13 13 13 13 13 12 13 12 12 13 15 16 16
21 20 23 28 29 34 40 36 29 30 31 33 36 35 36 42 45 47 49 50 49 51 57 60 60 62 64 67 71 72 73 75 75 76 77 75 72 70 68 68 69 69 68 70 70 69 73 74 69 67 65 58 52 50 48 46 46 46 42 39 37 36 40 44 43 47 47 38 34 37 36 25 15 12 13 14 14 14 13 13 13 13 13 13 14 15 16 16
21 19 21 26 30 31 33 35 34 31 28 31 32 30 33 38 37 36 41 49 50 47 49 54 56 59 62 65 69 70 68 66 67 69 71 69 68 70 72 72 74 75 74 72 72 74 79 79 73 71 68 60 52 49 52 53 54 54 50 46 44 44 45 48 51 51 47 40 38 36 33 28 20 13 14 14 14 14 14 14 15 14 14 14 14 16 16 16
23 19 18 23 31 32 29 30 32 30 27 30 30 28 30 32 34 39 40 41 43 44 47 51 54 59 60 60 63 65 64 63 63 64 65 65 64 66 69 71 73 77 79 78 77 80 84 81 74 73 70 63 57 56 60 63 62 61 59 56 54 53 53 59 60 51 43 46 45 34 30 32 26 17 16 15 13 14 15 15 16 16 16 17 16 17 17 16
25 21 18 21 27 29 29 27 26 25 26 30 30 28 28 27 32 41 42 35 34 39 47 51 52 53 54 53 56 60 62 64 63 58 57 60 62 63 65 66 67 72 78 82 82 84 88 83 76 77 76 68 64 62 63 67 67 64 65 64 62 62 62 64 62 51 47 52 47 35 32 35 30 23 18 14 13 15 16 17 19 19 19 19 18 19 18 18
27 25 22 24 24 23 23 24 25 25 26 28 31 31 31 29 26 30 34 35 39 40 44 49 47 44 47 50 54 58 60 63 63 58 53 55 59 61 61 62 62 65 72 82 87 88 90 87 81 84 85 77 70 67 66 70 71 69 68 67 66 66 65 65 62 55 53 55 50 44 42 39 33 28 22 17 17 19 20 21 22 21 21 20 21 21 21 22
27 26 24 27 27 22 22 23 25 28 29 34 36 31 27 26 24 25 30 35 39 39 39 42 40 40 45 50 54 57 56 57 59 56 54 57 59 59 59 58 58 60 65 73 83 88 91 91 87 89 94 88 77 72 71 74 78 78 76 74 70 67 65 64 63 60 59 59 55 53 53 46 36 32 31 28 25 25 28 28 27 26 25 25 26 27 27 28
29 28 27 29 27 23 24 23 23 31 36 38 35 26 23 22 20 27 35 34 33 34 34 33 31 36 44 46 49 51 49 53 56 53 54 60 60 59 60 58 58 62 63 63 70 78 84 88 88 92 100 93 80 78 79 78 84 90 87 78 70 66 64 62 63 62 62 61 59 59 60 51 37 35 40 38 32 32 35 33 32 31 31 32 33 33 34 34
35 35 33 32 28 24 24 24 27 36 38 32 25 21 21 19 18 31 42 39 33 31 32 33 33 38 44 44 44 45 46 52 55 54 56 62 62 63 66 64 63 66 67 64 64 67 72 77 79 85 95 90 77 78 83 85 94 98 86 69 62 61 63 65 65 61 56 57 61 61 57 49 42 42 43 39 35 37 39 37 36 36 36 38 40 40 39 39